Sussex, NJ

6:02 PM EDT on August 25, 2016 (GMT -0400)
Sussex

Weather History for KFWN - December, 2013

Change the Weather History Date:

Sunday, December 29, 2013

  Actual Average Record
Temperature  
Mean Temperature 34 °F -  
Max Temperature 41 °F 38 °F 63 °F (1982)
Min Temperature 26 °F 17 °F -5 °F (1960)
Degree Days  
Heating Degree Days 32    
Moisture  
Dew Point 34 °F    
Average Humidity 91    
Maximum Humidity 100    
Minimum Humidity 79    
Precipitation  
Precipitation 0.83 in - - ()
Sea Level Pressure  
Sea Level Pressure 29.70 in    
Wind  
Wind Speed 4 mph (NNE)    
Max Wind Speed 12 mph    
Max Gust Speed 18 mph    
Visibility 6 miles    
Events Rain    
Averages and records for this station are not official NWS values.
T = Trace of Precipitation, MM = Missing Value Source: NWS Daily Summary

Daily Weather History Graph

Daily Weather History Graph

Search for Another Location

Airport or City:

Trip Planner

Search our weather history database for the weather conditions in past years. The results will help you decide how hot, cold, wet, or windy it might be!

Date:

Astronomy

Dec. 29, 2013 Rise Set
Actual Time 7:23 AM EST 4:37 PM EST
Civil Twilight 6:52 AM EST 5:09 PM EST
Nautical Twilight 6:17 AM EST 5:43 PM EST
Astronomical Twilight 5:44 AM EST 6:17 PM EST
Moon 4:03 AM EST (12/29) 2:14 PM EST (12/29)
Length of Visible Light 10h 16m
Length of Day
9h 14m
Waning Crescent, 11% of the Moon is Illuminated
Dec 29
Waning Crescent
Jan 1
New
Jan 7
First Quarter
Jan 15
Full
Jan 24
Last Quarter

Hourly Weather History & Observations

Time (EST) Temp. Windchill Dew Point Humidity Pressure Visibility Wind Dir Wind Speed Gust Speed Precip Events Conditions
12:53 AM 26.1 °F - 24.1 °F 92% 30.05 in 9.0 mi Calm Calm - N/A   Clear
1:53 AM 28.0 °F 24.2 °F 25.0 °F 88% 30.05 in 10.0 mi WSW 3.5 mph - N/A   Clear
2:53 AM 28.0 °F - 25.0 °F 88% 30.05 in 10.0 mi Calm Calm - N/A   Clear
3:53 AM 28.0 °F - 26.1 °F 92% 30.04 in 10.0 mi Calm Calm - N/A   Clear
4:53 AM 28.0 °F - 26.1 °F 92% 30.01 in 10.0 mi Calm Calm - N/A   Clear
5:53 AM 30.0 °F - 27.0 °F 88% 30.00 in 10.0 mi Calm Calm - N/A   Clear
6:53 AM 30.0 °F - 28.0 °F 92% 29.98 in 10.0 mi Calm Calm - N/A   Clear
7:53 AM 30.9 °F - 28.0 °F 89% 30.01 in 10.0 mi Calm Calm - N/A   Mostly Cloudy
8:53 AM 33.1 °F - 28.9 °F 85% 29.99 in 10.0 mi Calm Calm - N/A   Overcast
9:53 AM 34.0 °F 29.8 °F 28.9 °F 82% 29.96 in 10.0 mi SW 4.6 mph - N/A   Overcast
10:53 AM 36.0 °F - 30.9 °F 82% 29.94 in 7.0 mi Calm Calm - 0.00 in Rain Light Rain
11:53 AM 36.0 °F 33.3 °F 34.0 °F 93% 29.87 in 3.0 mi NNE 3.5 mph - 0.03 in Rain Light Rain
12:53 PM 37.0 °F 34.5 °F 35.1 °F 93% 29.78 in 4.0 mi NE 3.5 mph - 0.06 in Rain Light Rain
1:44 PM 37.0 °F 29.8 °F 35.1 °F 93% 29.69 in 3.0 mi NE 10.4 mph - 0.09 in Rain Rain
1:53 PM 37.0 °F 31.6 °F 35.1 °F 93% 29.69 in 3.0 mi ENE 6.9 mph - 0.12 in Rain Rain
2:20 PM 37.0 °F 31.6 °F 35.1 °F 93% 29.65 in 2.0 mi NNE 6.9 mph - 0.07 in Rain Rain
2:27 PM 37.0 °F 30.4 °F 35.1 °F 93% 29.62 in 1.8 mi NNE 9.2 mph - 0.11 in Rain Rain
2:44 PM 37.0 °F 32.4 °F 36.0 °F 96% 29.61 in 1.5 mi NNE 5.8 mph - 0.19 in Rain Heavy Rain
2:46 PM 37.0 °F 31.6 °F 36.0 °F 96% 29.61 in 1.2 mi NNE 6.9 mph - 0.20 in Rain Heavy Rain
2:53 PM 37.0 °F 31.0 °F 36.0 °F 96% 29.61 in 1.2 mi NNE 8.1 mph - 0.23 in Rain Rain
2:58 PM 37.0 °F 30.4 °F 36.0 °F 96% 29.60 in 2.0 mi NNE 9.2 mph - 0.00 in Rain Light Rain
3:12 PM 37.0 °F 31.0 °F 36.0 °F 96% 29.59 in 1.5 mi NNE 8.1 mph - 0.04 in Rain Rain
3:19 PM 37.0 °F 29.8 °F 36.0 °F 96% 29.58 in 1.2 mi NNE 10.4 mph - 0.06 in Rain Rain
3:53 PM 37.0 °F 29.8 °F 36.0 °F 96% 29.57 in 1.2 mi NNE 10.4 mph - 0.16 in Rain Rain
4:02 PM 37.0 °F 29.3 °F 36.0 °F 96% 29.54 in 1.8 mi NE 11.5 mph - 0.03 in Rain Rain
4:10 PM 37.0 °F 29.3 °F 36.0 °F 96% 29.52 in 2.0 mi NE 11.5 mph - 0.06 in Rain Rain
4:21 PM 37.0 °F 30.4 °F 36.0 °F 96% 29.52 in 1.8 mi NE 9.2 mph - 0.11 in Rain Rain
4:26 PM 37.0 °F 31.6 °F 36.0 °F 96% 29.52 in 3.0 mi NNE 6.9 mph - 0.12 in Rain Rain
4:53 PM 37.9 °F 32.7 °F 37.0 °F 97% 29.56 in 4.0 mi NNW 6.9 mph - 0.17 in Rain Light Rain
5:01 PM 37.9 °F 30.5 °F 37.0 °F 97% 29.53 in 4.0 mi NNE 11.5 mph 16.1 mph 0.01 in Rain Light Rain
5:08 PM 37.9 °F 33.5 °F 37.0 °F 97% 29.54 in 2.5 mi NNW 5.8 mph 16.1 mph 0.03 in Rain Rain
5:17 PM 39.0 °F 32.8 °F 37.0 °F 93% 29.53 in 3.0 mi NNE 9.2 mph 18.4 mph 0.04 in Rain Light Rain
5:38 PM 39.0 °F 33.4 °F 37.0 °F 93% 29.51 in 4.0 mi NE 8.1 mph - 0.05 in   Overcast
5:53 PM 39.0 °F 32.8 °F 37.0 °F 93% 29.51 in 5.0 mi NE 9.2 mph - 0.05 in   Overcast
6:15 PM 39.0 °F 34.0 °F 37.0 °F 93% 29.50 in 4.0 mi NE 6.9 mph - N/A   Overcast
6:53 PM 39.0 °F 36.8 °F 39.0 °F 100% 29.54 in 4.0 mi Variable 3.5 mph - N/A   Overcast
7:38 PM 41.0 °F 36.4 °F 37.9 °F 89% 29.56 in 10.0 mi Variable 6.9 mph - 0.01 in   Overcast
7:53 PM 41.0 °F 37.1 °F 37.0 °F 86% 29.57 in 10.0 mi Variable 5.8 mph - 0.01 in   Overcast
8:53 PM 41.0 °F 36.4 °F 37.0 °F 86% 29.62 in 10.0 mi Variable 6.9 mph 17.3 mph N/A   Overcast
9:53 PM 39.9 °F 34.5 °F 35.1 °F 83% 29.65 in 10.0 mi NW 8.1 mph - N/A   Clear
10:21 PM 39.9 °F 37.8 °F 35.1 °F 83% 29.66 in 10.0 mi Variable 3.5 mph - N/A   Mostly Cloudy
10:53 PM 39.9 °F - 34.0 °F 79% 29.68 in 10.0 mi North - - N/A   Mostly Cloudy
11:04 PM 39.9 °F 36.7 °F 34.0 °F 79% 29.67 in 10.0 mi Variable 4.6 mph - N/A   Scattered Clouds
11:53 PM 37.9 °F 35.5 °F 34.0 °F 86% 29.71 in 10.0 mi WNW 3.5 mph - N/A   Clear